Miscellaneous Local Product
Issued by NWS Hastings, NE

Home | Current Version | Previous Version | Text Only | Print | Product List | Glossary Off
Versions: 1 2 3 4 5 6 7 8 9 10 11 12 13 14 15 16 17 18 19 20 21 22 23 24 25 26 27 28 29 30 31 32 33 34 35 36 37 38 39 40 41 42 43 44 45 46 47 48 49 50

000
AXUS43 KGID 030802
MISGRI

GID CWA HOURLY WEATHER ROUNDUP
NATIONAL WEATHER SERVICE HASTINGS NE
300 AM CDT SUN MAY 03 2015

NOTE: "FAIR" INDICATES FEW OR NO CLOUDS BELOW 12,000 FEET WITH NO
SIGNIFICANT WEATHER AND/OR OBSTRUCTIONS TO VISIBILITY.

...SOUTH CENTRAL NEBRASKA...

CITY           SKY/WX    TMP DP  RH WIND       PRES   REMARKS
GRAND ISLAND   CLEAR     66  51  58 S12       29.72F
HASTINGS       PTCLDY    65  51  60 S9        29.73F
KEARNEY        CLEAR     63  48  59 W9        29.74S
ORD            PTCLDY    56  46  69 S5        29.70S
YORK           PTCLDY    66  55  68 S13       29.75S
AURORA         PTCLDY    62  53  73 SE14      29.73S
LEXINGTON      PTCLDY    56  47  72 CALM      29.75R
HOLDREGE       CLEAR     62  47  59 SW6       29.75S
HEBRON         PTCLDY    65  53  65 S12       29.75F

...NEBRASKA PANHANDLE...

CITY           SKY/WX    TMP DP  RH WIND       PRES   REMARKS
CHADRON        MOCLDY    49  39  68 CALM      29.76F
ALLIANCE       PTCLDY    49  41  74 S3        29.79F
SCOTTSBLUFF    CLOUDY    56  41  57 N3        29.81F
SIDNEY         CLEAR     51  42  71 W12       29.86F

...WESTERN AND NORTH CENTRAL NEBRASKA...

CITY           SKY/WX    TMP DP  RH WIND       PRES   REMARKS
VALENTINE      MOCLDY    53  39  59 W8        29.70S
AINSWORTH      MOCLDY    55  46  71 SW8       29.70S
ONEILL         PTCLDY    60  51  70 SE8       29.71S
BROKEN BOW     CLEAR     63  41  44 W7        29.71F
IMPERIAL       PTCLDY    57  42  57 W9        29.80F
NORTH PLATTE   PTCLDY    52  45  77 CALM      29.76F
MCCOOK         MOCLDY    58  45  62 SW6       29.76S

...EASTERN NEBRASKA...

CITY           SKY/WX    TMP DP  RH WIND       PRES   REMARKS
NORFOLK        CLEAR     64  52  64 S20       29.72S
SO SIOUX CITY  CLOUDY    62  51  67 N3        29.72R
TEKAMAH        CLOUDY    63  55  75 S16G26    29.73F
COLUMBUS       CLEAR     63  50  63 SE7       29.78R
ALBION         PTCLDY    59  54  83 S10       29.74R
OMAHA EPPLEY   TSTM      61  59  93 SE7       29.83S
OFFUTT AFB     CLOUDY    60  57  92 NE5       29.82R
MILLARD        CLOUDY    60  57  90 CALM      29.83R THUNDER
LINCOLN        PTCLDY    62  53  72 SE12      29.80F
NEBRASKA CITY  CLOUDY    62  52  70 E8        29.84F
BEATRICE       PTCLDY    66  54  63 SE8       29.79S
FALLS CITY     CLOUDY    63  54  72 N6        29.85R

...NORTHERN KANSAS...

CITY           SKY/WX    TMP DP  RH WIND       PRES   REMARKS
GOODLAND       CLOUDY    57  45  64 W13       29.82F
HILL CITY      CLOUDY    68  47  46 W3        29.76F
NORTON         SUNNY     59  45  58 W5        29.75F
PHILLIPSBURG   CLEAR     66  52  59 W7        29.75R
SMITH CENTER   CLEAR     61  50  67 SE7       29.75F
BELOIT         CLEAR     64  54  68 SE8       29.75F
HAYS           CLOUDY    64  48  55 SW9       29.78F
RUSSELL        CLOUDY    67  53  61 S18       29.76F
CONCORDIA      PTCLDY    66  54  65 S18G26    29.75F
SALINA         CLOUDY    70  54  56 S21       29.78F
TOPEKA         CLOUDY    67  53  61 S5        29.84F



USA.gov is the U.S. government's official web portal to all federal, state and local government web resources and services.